Regional Weather Roundup
Issued by NWS Sioux Falls, SD

Home | Current Version | Previous Version | Graphics & Text | Print | Product List | Glossary On
Versions: 1 2 3 4 5 6 7 8 9 10 11 12 13 14 15 16 17 18 19 20 21 22 23 24 25 26 27 28 29 30 31 32 33 34 35 36 37 38 39 40 41 42 43 44 45 46 47 48 49 50
000
ASUS43 KFSD 210702
RWRFSD

WEATHER ROUNDUP FOR SE SOUTH DAKOTA/SW MINNESOTA/NW IOWA
NATIONAL WEATHER SERVICE SIOUX FALLS SD
100 AM CST SUN DEC 21 2014

NOTE: "FAIR" INDICATES FEW OR NO CLOUDS BELOW 12,000 FEET WITH NO
SIGNIFICANT WEATHER AND OR OBSTRUCTIONS TO VISIBILITY.


SDZ038>040-050-052>070-210800-
SOUTHEAST SOUTH DAKOTA

CITY           SKY/WX    TMP DP  RH WIND       PRES   REMARKS
CHAMBERLAIN    NOT AVBL
HURON          CLOUDY    31  29  92 S10       29.87F WCI  22
MADISON        FOG       28  28 100 S14       29.90F VSB<1/4 WCI  17
MITCHELL       CLOUDY    32  31  96 S14       29.89F FOG     WCI  22
SIOUX FALLS    FOG       30  30 100 S10       29.93F VSB 3/4 WCI  21
WINNER         CLOUDY    34  26  72 S6        29.82F WCI  29
YANKTON        CLOUDY    32  30  93 SE8       29.93F WCI  25
$$

MNZ071-072-080-081-089-090-097-098-210800-
SOUTHWEST MINNESOTA

CITY           SKY/WX    TMP DP  RH WIND       PRES   REMARKS
FAIRMONT       CLOUDY    32  28  86 S13       30.00F WCI  22
JACKSON        CLOUDY    32  30  93 S12       29.98F FOG     WCI  23
LUVERNE        FOG       32  32 100 S12       29.95F VSB 1/2 WCI  23
MARSHALL       CLOUDY    30  27  86 S9        29.95F WCI  22
MONTEVIDEO     CLOUDY    30  30 100 S10       29.96F WCI  21
PIPESTONE      FOG       30  28  93 S5        29.92F VSB 1/2 WCI  25
REDWOOD FALLS  CLOUDY    32  30  92 S13       29.98F WCI  22
TRACY          CLOUDY    32  31  95 S12G18    29.94F FOG     WCI  23
WINDOM         CLOUDY    30  30 100 S8G17     29.97F FOG     WCI  23
WORTHINGTON    CLOUDY    30  28  93 S14       29.96F VSB 1   WCI  20
$$

IAZ001>003-012>014-020>022-031-032-NEZ013-014-SDZ071-210800-
NORTHWEST IOWA

CITY           SKY/WX    TMP DP  RH WIND       PRES   REMARKS
DENISON        FOG       32  32 100 CALM      29.98F VSB 3/4
ESTHERVILLE    CLOUDY    31  30  96 S16       29.98F FOG     WCI  20
SIOUX CITY     CLOUDY    33  32  96 SE9       29.97F FOG     WCI  25
SPENCER        CLOUDY    32  30  92 S13       29.99F FOG     WCI  22
$$

ABBREVIATIONS USED IN REMARKS
   TC - TEMPERATURE IN CELSIUS
  WCI - WIND CHILL INDEX
   HX - HEAT INDEX
  VSB - VISIBILITY



USA.gov is the U.S. government's official web portal to all federal, state and local government web resources and services.